Weather in Trogir

Croatia     43°31′06″N   16°15′02″E
temp.,
°C
wind,
m/s
gust,
m/s
humid.,
%
clouds,
%
prec.,
mm/h
press.,
hPa
HPBL,
m
7 may, fri
fri723:00+15ese68825 0.0 1014282
02:00+15e697148 0.0 1013273
05:00+15e69735 0.0 1012311
08:00+16ese69751 0.0 1013479
11:00+17se811745 0.0 1013487
14:00+17se69755 0.0 1012365
17:00+17se58735 0.0 1011307
20:00+17e4574100 0.0 101175
8 may, sat
sat823:00+16ne457621 0.3 101384
02:00+16nne4475100 0.3 101369
05:00+13ne8966100 0.1 1015331
08:00+13ne6758100 0.1 1017324
11:00+17ne345479 0.0 1018356
14:00+17wsw436085 0.0 1018581
17:00+19wnw665497 0.0 1017338
20:00+16nw5766100 0.0 101895
9 may, sun
sun923:00+15nnw446526 0.0 101963
02:00+15n336318 0.0 101951
05:00+15nne22615 0.0 101841
08:00+16nne11600 0.0 101965
11:00+17sw21564 0.0 1019284
14:00+16sw22613 0.0 1020255
17:00+16sw11580 0.0 1019165
20:00+16ene11630 0.0 101930
10 may, mon
mon1023:00+16ne11625 0.0 101911
02:00+16ene2261100 0.0 101912
05:00+16ene335723 0.0 101923
08:00+17e34575 0.0 101985
11:00+18sse34550 0.0 1019190
14:00+17sse23600 0.0 1018178
17:00+18ese23590 0.0 1017159
20:00+18ene33673 0.0 101625
11 may, tue
tue1123:00+18ene236885 0.0 101713
02:00+17ene337071 0.0 101620
05:00+17ene446750 0.0 101528
08:00+18e45653 0.0 1014110
11:00+18se35710 0.0 1015194
14:00+19se35710 0.0 1014203
17:00+20ese47720 0.0 1012212
20:00+18e587613 0.0 1010120